Temperature
16 16 17 17 17 17 18 20 20 20 19 19 19 19 17 16 16 15 12 12 13 13 13 13 13 13 13 14 14 14 14 14 14 14 14 14 14 14 14 14 14 15 15 15 15 15 15 15 15
16 16 17 17 16 17 18 19 19 18 18 18 18 18 17 15 14 13 12 12 12 12 13 13 13 13 13 13 13 13 13 14 14 14 14 14 14 14 14 14 14 14 14 15 14 15 15 15 15
16 16 16 17 17 17 18 19 18 18 17 17 17 16 15 14 12 11 11 12 12 12 12 13 13 13 13 13 13 13 13 13 13 14 14 14 14 14 14 14 14 14 14 14 14 14 14 15 15
15 16 17 16 16 17 18 18 17 17 17 17 16 15 13 12 11 11 12 12 12 12 12 12 12 12 12 13 13 13 13 13 13 13 13 13 13 14 14 14 14 14 14 14 14 14 14 14 14
15 16 16 16 16 17 17 18 17 17 17 16 15 15 12 11 11 11 11 11 11 11 12 12 12 12 12 12 12 12 12 13 13 13 13 13 13 13 14 14 14 14 14 14 14 14 14 14 14
15 16 16 16 16 16 17 17 17 16 16 15 14 14 12 11 11 11 11 11 11 11 11 11 12 12 12 12 12 12 12 12 12 12 13 13 13 13 13 13 13 13 13 13 13 13 14 14 13
15 15 16 17 17 16 16 16 16 15 14 14 13 13 11 10 10 10 10 10 10 10 11 11 11 11 11 11 12 12 12 12 12 12 12 12 12 13 13 13 13 13 13 13 13 13 13 13 13
14 15 16 16 16 15 15 15 14 14 13 12 12 12 10 9 10 10 10 10 10 10 10 10 11 11 11 11 11 11 11 11 11 12 12 12 12 12 12 12 12 13 13 13 13 13 13 13 13
14 14 14 15 15 14 14 14 13 12 12 11 11 10 9 9 9 9 9 9 9 9 9 10 10 10 10 10 11 11 11 11 11 11 11 11 12 12 12 12 12 12 12 12 12 12 12 12 12
13 12 13 13 13 13 13 12 12 12 11 11 10 9 9 9 9 9 9 9 9 9 9 9 9 10 10 10 10 10 10 10 10 10 11 11 11 11 11 12 12 12 12 12 12 12 12 12 12
12 12 12 12 11 12 12 11 11 11 10 10 9 9 8 8 8 8 8 8 8 8 8 8 9 9 9 9 10 10 10 10 10 10 10 10 10 11 11 11 11 11 11 11 11 11 12 11 11
11 11 11 10 10 10 10 10 10 10 9 9 9 9 8 8 8 8 7 7 7 7 8 8 8 8 8 9 9 9 9 9 9 9 10 10 10 10 10 11 11 11 11 11 11 11 11 11 11
11 10 10 9 9 9 9 9 9 9 8 8 8 8 7 7 7 7 7 7 7 7 7 7 7 8 8 8 8 9 8 9 9 9 9 9 9 10 10 10 10 10 10 11 11 11 11 11 11
10 10 9 9 9 9 8 8 8 8 8 8 7 7 7 6 6 6 6 6 6 6 7 7 7 7 8 8 8 8 8 8 8 9 9 9 9 9 10 10 10 10 10 10 10 10 10 10 10
9 9 9 9 9 9 8 7 7 8 7 7 7 7 6 6 6 6 6 6 6 6 6 6 7 7 7 7 7 7 8 8 8 8 8 9 9 9 9 9 10 10 10 10 10 10 10 10 9
9 9 8 9 9 8 7 7 8 8 7 7 6 6 6 6 5 5 5 5 5 5 5 6 6 6 6 7 7 7 7 7 7 8 8 8 8 8 9 9 9 9 9 9 9 9 9 9 9
8 8 9 8 8 8 7 6 7 7 7 6 6 6 6 5 5 5 5 5 5 5 5 5 5 6 6 6 6 6 7 7 7 7 7 8 8 8 8 8 9 9 9 9 9 9 9 9 8
8 8 9 8 7 7 6 6 7 7 7 6 6 6 6 5 5 4 4 5 5 5 4 5 5 5 5 5 6 6 6 6 6 7 7 7 7 7 7 8 8 8 8 8 8 8 8 8 8
7 8 7 7 7 6 6 6 6 7 6 6 6 6 5 5 4 4 4 4 4 4 4 4 4 4 4 5 5 5 6 6 6 6 6 6 7 7 7 7 7 7 8 8 8 8 8 7 7
7 7 7 7 7 6 5 5 5 6 6 5 5 5 4 4 4 3 3 3 3 3 3 3 4 4 4 4 4 5 5 5 5 5 6 6 6 6 6 6 7 7 7 7 7 7 7 7 7
6 5 5 5 5 5 4 5 5 5 6 6 5 4 4 3 3 2 2 2 3 3 3 3 3 3 3 3 3 4 4 4 5 5 5 5 5 6 6 6 6 6 6 6 6 7 7 6 6
5 5 5 5 4 4 5 3 5 5 4 4 4 4 3 3 2 2 2 2 2 2 2 2 2 2 3 3 3 3 3 4 4 4 5 5 5 5 5 5 5 6 6 6 6 6 6 6 6
4 4 4 4 3 3 4 3 4 4 4 3 3 3 3 2 2 1 1 1 1 1 2 2 2 2 2 2 2 2 3 3 3 4 4 4 4 5 5 5 5 5 5 5 5 5 5 6 6
4 4 3 3 3 2 3 3 4 3 4 3 3 3 2 2 1 1 1 1 1 1 1 1 1 2 2 2 2 2 2 2 3 3 3 4 4 4 4 4 4 4 4 5 5 5 5 5 5
3 2 2 2 2 3 3 3 3 4 3 3 2 2 2 1 1 0 0 0 0 0 0 0 1 1 1 1 1 2 2 2 2 2 2 3 3 3 3 3 4 4 4 4 4 4 4 4 4
2 2 2 2 3 3 2 2 3 3 3 3 2 1 1 1 0 0 -0 -0 -0 -0 -0 -0 0 0 1 1 1 1 1 1 1 1 2 2 2 2 2 3 3 3 3 3 3 3 4 3 4
2 2 2 1 1 1 2 3 3 2 2 1 1 0 0 0 -0 -0 -0 -1 -1 -1 -1 -1 -1 -0 -0 -0 -0 0 0 1 1 1 1 1 1 1 2 2 2 2 2 2 3 3 3 3 3
2 2 0 0 1 1 3 3 2 2 1 0 -0 -0 -0 -0 -1 -1 -1 -1 -1 -1 -1 -2 -1 -1 -1 -1 -1 -1 -0 -0 0 0 0 0 1 1 1 1 1 1 1 1 2 2 2 2 2
0 0 0 0 1 1 1 2 3 2 1 0 -0 0 -0 -1 -1 -1 -1 -2 -2 -2 -2 -2 -2 -2 -2 -2 -2 -1 -1 -1 -1 -0 -0 -0 -0 0 0 0 0 1 1 1 1 1 1 1 2
0 0 -0 -1 -0 0 -0 1 2 1 0 0 -0 -0 -0 -1 -1 -2 -2 -2 -2 -2 -3 -3 -3 -3 -3 -3 -2 -2 -2 -1 -1 -1 -1 -1 -1 -1 -0 -0 -0 -0 -0 0 0 1 1 1 1
Wind_Speed
13 11 5 2 2 3 6 2 1 3 3 4 5 5 5 5 5 5 3 6 7 5 6 5 5 5 5 5 6 6 7 7 7 7 8 8 8 9 9 9 10 11 11 11 12 12 13 13 14
10 6 3 2 3 5 4 2 2 3 4 4 5 4 4 5 6 5 4 6 6 6 7 6 6 5 5 5 5 6 6 6 6 7 7 7 8 8 8 9 9 10 10 11 11 12 12 13 13
8 5 3 2 3 4 1 3 4 4 5 4 3 4 3 4 5 4 5 5 5 6 7 6 6 6 5 5 5 5 5 5 6 6 6 7 7 8 8 8 9 9 10 11 11 11 12 12 12
4 3 3 4 6 3 2 1 2 2 3 3 3 4 4 6 4 5 5 5 5 6 7 7 7 6 5 5 5 5 5 5 5 5 6 6 6 7 7 8 8 9 10 10 10 11 12 12 11
3 3 4 6 7 3 2 2 2 1 2 2 3 2 4 5 7 7 6 5 5 5 7 6 6 6 5 5 5 4 4 4 4 4 5 5 6 7 7 7 8 9 10 10 10 11 11 11 11
3 3 5 7 6 4 1 2 2 1 2 3 2 1 4 5 7 6 6 5 5 5 6 6 5 5 5 5 5 5 4 4 4 4 4 4 5 6 7 8 8 8 9 9 9 11 11 11 10
3 3 6 6 4 3 1 2 0 1 2 2 3 1 4 5 6 5 5 5 6 6 6 6 5 5 5 5 5 4 4 4 4 4 4 4 4 5 6 7 7 8 9 9 10 10 10 10 9
3 3 6 6 4 3 2 2 2 4 2 4 4 2 2 3 4 4 4 4 5 6 5 5 5 5 5 4 4 4 4 4 4 4 4 4 4 5 6 6 7 8 9 9 9 10 10 9 9
4 3 4 4 3 1 3 2 3 3 2 3 3 4 4 5 4 4 4 4 5 5 5 5 5 4 3 3 2 3 2 4 4 4 4 3 4 5 5 6 7 7 8 9 9 8 8 8 8
1 3 3 3 4 3 3 2 2 0 0 1 2 4 5 4 3 3 3 3 4 4 4 4 5 5 4 2 2 2 2 2 3 3 3 3 3 4 4 6 6 6 7 7 7 7 7 7 6
0 1 1 4 6 4 2 1 1 2 2 1 0 2 3 2 2 1 1 1 1 2 4 4 4 4 4 3 2 2 2 2 3 3 3 3 3 4 5 5 6 6 6 6 5 6 6 6 6
0 1 2 3 5 4 2 2 2 3 2 4 3 2 3 1 0 0 1 1 2 2 3 4 5 5 5 4 3 2 2 3 3 3 3 3 2 3 3 3 4 4 4 4 4 4 5 5 7
2 1 1 2 2 2 3 2 3 4 3 3 3 2 2 1 0 1 1 1 2 2 3 3 4 4 4 4 3 3 3 2 2 3 3 3 2 2 2 2 3 3 4 4 3 3 4 5 6
1 1 0 0 1 2 2 3 3 4 1 0 0 0 1 1 1 1 1 2 2 2 3 3 3 4 4 3 3 3 3 2 2 3 3 3 2 2 2 2 2 2 3 3 4 5 4 4 6
1 2 3 3 3 1 2 5 5 4 2 2 2 1 1 0 0 1 1 2 2 2 2 3 3 4 3 3 3 3 3 2 2 2 2 3 3 2 2 2 2 2 2 4 4 5 5 4 5
3 3 3 2 2 2 2 6 2 3 3 3 3 2 2 1 1 0 1 1 2 3 3 2 3 3 3 3 2 2 2 2 2 2 2 2 2 2 2 2 2 2 3 3 3 3 3 3 4
3 4 4 1 2 1 3 6 2 2 3 5 5 4 3 2 1 1 1 1 1 2 2 2 2 2 2 3 2 2 2 2 3 3 2 1 2 1 2 2 2 3 3 3 3 3 4 4 4
3 4 4 3 1 2 6 8 5 4 5 6 5 4 4 2 1 1 2 2 2 2 2 2 2 2 2 2 2 1 2 2 3 3 3 1 1 1 2 2 2 3 3 2 3 3 4 3 4
5 6 7 5 2 3 8 10 7 5 5 6 4 3 3 2 0 2 2 2 3 3 2 2 2 1 1 1 1 0 0 0 1 1 2 2 1 1 1 1 2 2 3 3 4 4 5 3 3
5 6 6 5 2 4 8 11 7 5 4 4 3 2 2 2 1 2 2 3 3 3 3 2 2 2 1 1 1 1 1 1 1 1 2 1 1 1 1 1 1 2 3 4 4 4 3 2 2
4 4 6 6 6 5 6 8 4 3 3 2 1 1 1 0 1 0 1 2 3 3 3 3 2 2 2 2 1 1 1 1 0 1 0 1 1 1 1 0 1 1 3 4 5 5 5 4 2
4 3 5 6 5 4 2 6 4 4 2 1 1 1 1 1 0 0 0 1 2 3 3 3 3 3 2 1 1 0 1 1 1 1 1 0 0 0 1 0 0 1 2 4 5 4 4 5 4
3 5 5 6 5 5 4 5 6 2 3 3 2 1 2 1 0 0 1 1 2 2 3 3 3 3 2 2 1 1 1 1 1 1 1 1 0 0 0 1 1 1 1 3 4 4 4 4 4
3 4 4 4 2 4 5 5 6 2 3 2 1 1 1 1 1 1 2 2 2 2 2 3 3 3 3 2 2 1 2 1 2 1 2 1 1 0 0 1 1 0 0 2 2 3 5 5 4
2 2 2 2 3 6 2 4 6 2 1 1 1 1 1 1 1 1 2 2 2 2 2 2 3 3 3 3 2 2 2 2 3 3 3 2 1 1 1 1 0 0 1 1 2 2 3 5 6
2 1 2 3 4 3 2 6 4 2 2 2 2 2 2 1 1 1 1 1 1 1 2 3 3 3 3 3 3 3 3 2 2 2 2 3 2 2 2 2 1 2 2 2 2 2 2 3 5
1 2 1 2 4 5 6 5 2 1 2 2 1 1 2 2 1 1 1 1 1 1 2 2 3 3 4 4 3 3 3 2 1 1 1 1 2 2 2 2 2 2 2 2 1 2 3 3 4
2 0 1 2 3 5 6 5 4 2 2 2 1 2 2 2 2 2 2 2 2 1 2 2 2 3 4 4 3 3 3 2 1 1 1 1 1 1 2 2 2 2 2 2 2 2 3 3 4
3 2 3 4 4 4 5 5 1 2 1 2 2 2 2 3 2 2 2 2 2 2 2 2 3 3 4 4 3 3 3 3 2 1 1 1 1 1 2 2 2 2 3 3 3 2 3 4 4
3 5 6 5 6 5 5 8 1 2 1 1 2 3 3 3 2 2 2 2 2 2 2 2 3 3 3 4 3 3 3 3 2 2 2 1 1 1 2 2 2 3 3 3 3 3 3 4 4
Wind_Direction
309 287 265 264 250 231 239 239 74 67 44 29 27 31 37 28 27 95 79 39 27 49 83 91 94 98 95 94 92 88 85 83 84 83 80 78 78 80 80 81 86 88 88 88 86 84 84 83 82
300 293 265 242 232 232 228 177 110 68 68 44 34 34 53 58 58 82 48 21 26 53 78 78 90 90 95 98 98 94 90 88 87 86 83 80 80 82 81 82 83 91 92 91 89 87 88 86 83
281 268 258 235 233 238 226 70 81 100 90 69 50 40 41 55 54 50 29 15 34 52 70 71 83 87 86 93 100 102 99 95 91 89 87 83 81 82 85 83 82 87 95 95 92 92 92 89 85
275 239 245 242 239 259 291 19 78 106 109 68 75 92 76 52 42 41 33 23 43 53 67 73 74 75 80 83 96 105 107 102 96 91 89 87 86 85 84 84 83 86 94 100 100 98 95 92 88
245 242 227 231 234 230 311 23 86 107 138 87 58 82 90 63 55 51 39 34 46 49 64 78 71 67 70 79 85 91 103 103 100 96 95 94 93 94 92 89 88 89 93 99 106 104 99 95 92
247 242 235 231 219 202 222 32 9 79 97 71 57 88 101 69 52 40 37 31 42 48 58 78 70 66 62 62 74 85 89 94 94 92 97 98 97 98 95 95 95 93 95 95 105 106 103 100 95
268 253 249 256 235 209 177 84 350 341 87 60 357 56 109 53 47 41 40 32 40 50 53 64 65 63 58 58 52 71 88 93 93 88 89 93 96 97 101 101 98 99 99 99 98 105 106 100 96
303 287 256 254 245 237 77 76 28 21 65 50 14 23 94 44 43 55 53 39 38 36 40 46 52 58 54 54 53 49 79 93 97 99 98 101 111 109 105 106 103 103 103 103 101 102 107 104 98
296 255 255 274 299 65 79 64 43 34 66 64 37 33 63 79 57 52 46 35 29 25 24 33 31 36 49 63 63 55 79 93 98 107 118 112 101 103 110 113 113 110 108 108 106 105 111 109 101
288 233 251 359 8 29 71 52 40 252 110 112 58 60 70 78 66 58 43 32 24 10 9 25 21 17 17 35 69 73 64 98 86 79 89 100 98 105 113 120 116 111 110 113 111 109 110 108 96
253 230 339 18 10 8 37 33 20 270 264 291 204 110 84 74 65 44 26 16 27 18 13 15 11 8 11 14 25 39 50 75 89 74 64 76 98 98 92 100 103 101 102 97 104 101 96 94 89
218 332 9 17 13 2 356 332 322 299 322 3 19 111 106 109 77 328 336 349 15 12 7 10 11 8 4 8 16 24 42 47 68 69 70 63 70 86 97 100 104 102 100 102 103 107 94 89 90
202 226 78 40 25 7 350 302 294 287 323 6 24 80 125 155 87 15 8 15 23 4 357 9 11 4 3 12 8 24 29 44 69 92 79 63 57 68 76 104 108 105 103 108 114 103 95 83 90
74 98 265 257 280 291 288 275 262 262 257 224 224 188 148 127 62 15 358 10 8 357 349 0 6 7 6 7 9 11 21 33 54 73 79 76 65 65 84 93 102 106 121 129 123 113 98 87 87
137 205 228 222 205 206 311 268 230 237 211 229 247 254 210 151 63 344 7 10 349 345 352 2 3 10 10 9 7 18 21 36 51 55 96 91 72 70 91 105 98 97 111 121 119 113 104 101 91
214 228 230 178 172 141 215 262 235 174 185 234 247 249 232 214 218 299 20 12 352 354 354 357 359 2 7 8 6 18 36 41 46 53 91 104 94 88 95 115 113 108 110 111 120 127 121 114 103
205 258 259 207 167 193 225 263 268 169 204 236 237 236 239 240 264 323 37 42 16 357 349 352 357 1 8 8 14 21 39 54 46 41 44 80 94 102 95 114 117 129 117 110 122 130 135 130 117
290 290 297 288 187 268 253 261 261 225 228 242 238 230 236 243 257 10 30 39 26 8 346 354 358 7 18 17 19 36 54 45 50 43 29 41 81 106 104 110 132 135 130 134 134 132 124 129 128
313 306 303 306 325 291 266 271 272 264 234 242 247 245 247 260 278 54 40 42 24 7 352 351 343 352 21 358 326 248 189 300 34 34 37 46 51 56 87 91 129 136 147 152 144 138 130 123 129
305 301 299 306 340 307 283 278 267 254 238 231 245 265 279 301 360 36 31 24 8 348 338 342 339 331 310 305 295 251 202 219 186 24 35 56 59 43 64 91 135 164 154 156 156 142 135 136 143
298 298 306 310 312 268 279 285 242 239 227 228 230 265 307 303 212 13 13 9 359 349 336 326 329 330 343 345 3 30 45 33 347 319 23 16 30 79 86 90 160 180 170 174 173 163 149 160 176
290 336 314 309 307 289 278 294 268 252 242 262 295 349 329 330 352 66 29 357 353 345 340 340 345 347 350 356 339 205 217 233 245 239 208 64 30 41 108 98 185 189 178 179 183 174 162 158 174
297 329 304 282 272 289 248 249 275 223 266 265 254 265 277 271 249 77 38 5 10 0 354 346 347 344 343 342 307 267 247 245 241 221 169 158 101 48 90 142 144 167 175 180 179 175 168 170 173
324 308 282 259 241 261 230 215 275 219 242 281 273 269 300 10 5 27 40 31 20 12 7 1 351 340 338 333 314 269 248 244 226 208 191 187 186 181 55 167 163 184 176 171 178 181 179 178 179
336 359 336 297 229 242 204 221 250 230 112 88 283 308 334 53 54 26 30 360 350 2 0 359 354 337 333 331 318 298 271 241 227 212 202 193 192 214 220 199 194 208 228 205 167 170 188 186 185
241 194 194 253 271 293 264 239 243 139 85 63 67 46 12 9 14 339 321 329 328 342 349 346 346 342 335 330 322 317 305 264 241 233 220 204 207 208 206 201 207 222 221 217 190 174 194 198 197
218 224 254 255 281 279 255 248 241 76 38 45 46 30 338 336 337 319 324 330 325 324 324 331 336 339 335 328 324 319 320 304 283 255 241 218 199 198 192 195 200 209 213 210 206 196 198 203 204
270 221 130 190 256 268 264 249 247 241 263 304 320 308 308 316 312 317 330 340 344 346 343 344 340 334 335 336 329 321 326 319 305 288 261 246 217 198 192 194 201 206 208 210 208 203 204 204 208
181 199 212 232 241 247 273 264 216 171 193 242 263 285 296 301 298 307 320 333 348 0 4 349 341 342 342 338 332 327 326 325 321 304 290 278 269 227 210 202 202 210 215 211 205 213 210 211 216
200 206 188 208 243 234 255 266 245 138 162 240 298 311 311 302 307 316 323 343 349 342 342 340 339 341 337 335 329 321 316 319 318 307 299 291 274 258 236 217 207 218 224 218 212 216 217 216 219
Height
1500 1501 1503 1505 1507 1508 1504 1498 1494 1497 1500 1503 1503 1504 1507 1512 1515 1524 1523 1520 1519 1519 1519 1520 1521 1522 1523 1524 1525 1527 1528 1529 1530 1530 1531 1532 1533 1534 1535 1536 1537 1537 1538 1539 1539 1540 1540 1541 1542
1500 1501 1504 1505 1507 1510 1504 1497 1498 1500 1503 1504 1505 1507 1509 1514 1517 1520 1519 1519 1519 1519 1519 1520 1521 1522 1523 1524 1526 1527 1528 1529 1530 1531 1532 1533 1534 1535 1535 1536 1537 1538 1539 1539 1540 1541 1542 1542 1543
1500 1501 1504 1502 1503 1505 1502 1497 1499 1501 1504 1505 1508 1510 1513 1518 1519 1519 1519 1518 1519 1518 1519 1520 1521 1522 1523 1524 1525 1526 1528 1529 1530 1531 1532 1533 1534 1535 1536 1536 1537 1538 1539 1540 1541 1541 1542 1543 1544
1501 1503 1503 1504 1503 1500 1500 1500 1500 1502 1504 1506 1509 1512 1516 1519 1519 1519 1518 1518 1518 1518 1519 1520 1521 1522 1523 1524 1525 1526 1527 1528 1530 1531 1532 1533 1534 1535 1536 1536 1537 1538 1539 1540 1541 1542 1542 1544 1545
1501 1502 1503 1503 1501 1500 1499 1500 1501 1502 1505 1508 1510 1513 1517 1519 1518 1518 1518 1518 1518 1518 1519 1519 1520 1521 1522 1523 1524 1525 1526 1528 1529 1530 1531 1532 1533 1534 1535 1536 1537 1538 1539 1540 1541 1542 1543 1544 1545
1502 1499 1502 1502 1499 1499 1500 1502 1503 1504 1506 1509 1511 1514 1517 1518 1517 1517 1517 1518 1518 1519 1519 1519 1520 1521 1522 1522 1523 1524 1525 1527 1528 1529 1530 1532 1533 1534 1535 1536 1537 1538 1539 1540 1541 1541 1543 1544 1546
1501 1499 1498 1496 1496 1500 1501 1502 1504 1505 1508 1511 1512 1514 1516 1517 1517 1517 1517 1518 1518 1519 1519 1519 1519 1520 1521 1522 1522 1523 1524 1525 1527 1528 1530 1531 1532 1533 1534 1535 1536 1537 1538 1539 1540 1541 1543 1545 1546
1499 1499 1496 1495 1496 1500 1503 1504 1506 1507 1509 1512 1513 1515 1516 1517 1516 1516 1517 1517 1518 1518 1518 1518 1519 1519 1520 1521 1521 1522 1523 1524 1525 1527 1528 1530 1531 1532 1533 1534 1536 1537 1538 1539 1540 1541 1543 1544 1546
1499 1502 1501 1498 1498 1502 1503 1505 1507 1509 1510 1512 1514 1516 1516 1516 1515 1515 1515 1516 1516 1517 1517 1518 1518 1518 1519 1519 1520 1521 1522 1523 1524 1525 1527 1528 1529 1531 1532 1533 1535 1536 1537 1538 1540 1541 1542 1544 1546
1500 1503 1502 1502 1502 1503 1505 1507 1508 1509 1510 1512 1513 1514 1514 1514 1514 1514 1514 1514 1514 1515 1516 1516 1517 1517 1517 1518 1518 1519 1520 1521 1522 1523 1525 1526 1528 1529 1531 1532 1533 1535 1536 1538 1539 1540 1542 1543 1545
1500 1503 1503 1504 1505 1505 1506 1508 1509 1510 1511 1512 1512 1513 1513 1513 1513 1514 1514 1514 1514 1514 1515 1515 1515 1515 1516 1516 1516 1517 1518 1519 1520 1521 1523 1525 1526 1528 1529 1530 1532 1533 1535 1536 1538 1539 1541 1542 1544
1502 1504 1505 1506 1507 1507 1508 1509 1510 1510 1511 1512 1511 1511 1511 1512 1513 1513 1513 1513 1513 1513 1513 1513 1513 1514 1514 1514 1514 1515 1516 1516 1518 1519 1521 1523 1524 1525 1527 1528 1530 1531 1533 1534 1536 1538 1539 1541 1543
1503 1505 1506 1507 1508 1508 1509 1509 1510 1510 1510 1510 1511 1511 1511 1511 1512 1512 1512 1512 1511 1511 1511 1511 1511 1512 1512 1512 1512 1513 1514 1514 1515 1517 1519 1520 1522 1523 1525 1526 1528 1529 1531 1532 1534 1536 1537 1539 1541
1504 1505 1507 1507 1508 1509 1509 1509 1510 1507 1509 1509 1510 1510 1510 1510 1510 1510 1510 1509 1509 1509 1509 1509 1509 1509 1510 1510 1510 1510 1511 1512 1513 1515 1516 1518 1520 1521 1522 1523 1525 1527 1529 1530 1532 1534 1535 1537 1539
1505 1506 1507 1506 1507 1508 1509 1508 1507 1506 1508 1508 1508 1508 1508 1508 1508 1508 1507 1507 1507 1507 1507 1506 1506 1507 1507 1507 1508 1509 1509 1510 1511 1512 1514 1516 1517 1519 1520 1521 1523 1525 1526 1528 1530 1531 1533 1535 1537
1505 1506 1507 1504 1505 1507 1512 1508 1504 1504 1505 1506 1506 1506 1506 1506 1506 1506 1505 1505 1505 1504 1504 1504 1504 1504 1504 1504 1505 1506 1507 1508 1508 1510 1511 1513 1514 1516 1517 1518 1520 1522 1524 1525 1527 1528 1530 1532 1534
1506 1507 1503 1505 1505 1506 1509 1507 1504 1503 1503 1503 1504 1504 1504 1503 1503 1503 1503 1502 1502 1502 1502 1501 1501 1501 1501 1501 1502 1503 1504 1505 1506 1507 1508 1510 1511 1513 1514 1516 1517 1519 1521 1522 1524 1526 1528 1529 1531
1508 1506 1502 1504 1505 1506 1506 1504 1502 1502 1501 1500 1501 1501 1501 1501 1501 1500 1500 1499 1499 1499 1499 1499 1498 1498 1498 1498 1499 1500 1501 1502 1503 1504 1505 1507 1508 1509 1511 1513 1514 1515 1517 1519 1521 1523 1525 1527 1529
1507 1507 1507 1506 1505 1506 1504 1502 1499 1498 1497 1497 1497 1497 1498 1498 1498 1498 1497 1497 1496 1496 1496 1495 1495 1495 1495 1495 1495 1496 1497 1498 1499 1500 1501 1503 1504 1506 1508 1509 1511 1512 1513 1515 1517 1520 1521 1524 1526
1507 1508 1508 1506 1504 1506 1504 1499 1496 1495 1494 1494 1495 1495 1495 1495 1495 1494 1494 1494 1493 1493 1493 1493 1493 1493 1493 1493 1493 1493 1494 1495 1496 1497 1498 1500 1501 1502 1504 1506 1507 1508 1510 1512 1514 1516 1517 1520 1523
1509 1512 1510 1510 1507 1505 1505 1498 1493 1490 1490 1492 1493 1493 1493 1493 1493 1492 1492 1492 1491 1490 1490 1490 1490 1490 1490 1490 1490 1491 1491 1492 1493 1493 1494 1496 1498 1499 1500 1502 1504 1505 1506 1508 1509 1511 1513 1516 1519
1512 1510 1510 1510 1513 1510 1506 1508 1493 1489 1489 1490 1491 1491 1491 1492 1492 1491 1490 1489 1489 1488 1488 1487 1487 1487 1487 1487 1487 1487 1487 1488 1489 1490 1491 1493 1494 1495 1496 1498 1499 1501 1503 1504 1506 1507 1509 1512 1515
1512 1511 1510 1510 1512 1514 1506 1510 1496 1489 1489 1489 1489 1489 1489 1489 1489 1489 1488 1488 1487 1486 1485 1485 1485 1485 1484 1484 1484 1484 1485 1486 1486 1487 1487 1488 1490 1491 1493 1494 1496 1497 1498 1500 1502 1503 1505 1508 1510
1513 1512 1510 1510 1512 1518 1506 1507 1495 1491 1488 1486 1486 1487 1488 1488 1488 1487 1487 1486 1485 1484 1483 1483 1482 1482 1482 1482 1481 1482 1482 1482 1483 1483 1483 1484 1486 1487 1489 1490 1491 1493 1494 1496 1498 1499 1501 1503 1505
1515 1518 1519 1516 1515 1508 1500 1502 1496 1485 1484 1484 1485 1486 1486 1486 1486 1485 1484 1484 1483 1482 1481 1480 1480 1480 1479 1479 1478 1478 1479 1479 1479 1480 1480 1481 1482 1483 1484 1485 1486 1488 1490 1491 1493 1495 1496 1498 1501
1516 1516 1523 1523 1512 1502 1503 1501 1491 1484 1483 1483 1484 1485 1485 1484 1484 1483 1483 1482 1481 1480 1479 1478 1477 1477 1476 1476 1475 1475 1475 1475 1476 1477 1477 1478 1478 1479 1481 1481 1483 1484 1485 1487 1488 1490 1492 1494 1496
1515 1517 1516 1520 1517 1517 1501 1489 1485 1483 1483 1484 1484 1484 1484 1483 1483 1482 1481 1480 1479 1478 1477 1476 1475 1474 1474 1473 1472 1472 1472 1472 1472 1473 1474 1474 1475 1476 1477 1478 1479 1480 1481 1483 1484 1485 1487 1490 1492
1514 1514 1520 1522 1521 1513 1495 1489 1488 1485 1484 1483 1483 1483 1482 1482 1482 1481 1479 1478 1477 1476 1475 1474 1473 1472 1471 1470 1469 1469 1468 1468 1469 1469 1470 1470 1471 1472 1473 1474 1475 1476 1477 1478 1480 1481 1483 1485 1486
1516 1517 1516 1515 1513 1512 1505 1494 1480 1480 1480 1481 1481 1481 1480 1480 1480 1479 1478 1476 1475 1474 1473 1471 1470 1469 1468 1467 1467 1466 1465 1465 1465 1465 1466 1467 1467 1469 1470 1470 1471 1472 1473 1474 1475 1477 1479 1480 1482
1509 1510 1514 1518 1514 1509 1506 1495 1478 1477 1478 1479 1479 1479 1479 1479 1478 1476 1475 1474 1472 1471 1470 1469 1468 1467 1466 1465 1464 1463 1463 1462 1462 1462 1462 1463 1464 1465 1466 1466 1467 1468 1469 1470 1470 1472 1473 1475 1477